Theta_e
316 318 319 321 322 324 325 327 329 331 331 333 336 336 334 335 339 340 341 344 345 347 349 348 348 346 347 348 348 348 347 346 345 343 342 340 337 335 335 333 331 329 329
316 317 319 320 321 324 326 327 329 331 332 333 334 335 333 336 338 340 339 339 341 344 346 347 347 347 348 347 347 346 346 345 342 340 339 338 336 334 332 330 329 328 328
317 320 319 320 322 324 326 328 329 331 331 332 333 333 334 336 336 338 337 336 338 343 344 347 347 349 348 347 346 346 345 343 340 338 336 335 332 330 329 329 328 328 328
322 321 320 320 323 324 327 328 329 330 329 330 331 332 334 335 334 334 336 336 336 339 344 347 347 346 347 347 347 346 343 340 338 335 332 330 329 329 328 328 328 327 326
325 321 323 325 327 327 328 328 329 328 328 329 330 331 331 332 332 333 333 334 335 335 337 345 344 345 347 347 346 344 341 338 335 332 329 329 328 327 326 326 326 326 325
324 326 324 326 329 327 328 328 328 329 329 328 329 328 328 330 330 331 331 333 334 335 336 337 340 341 343 346 345 342 340 337 333 329 328 328 325 326 325 325 325 325 324
324 326 327 326 329 327 328 328 328 327 327 328 324 324 326 328 328 328 330 331 332 334 334 334 336 337 340 342 342 341 339 336 331 328 327 328 326 325 324 324 324 324 323
327 326 328 327 328 326 327 328 327 325 326 327 322 322 317 321 324 326 328 328 329 331 331 332 334 337 339 338 340 341 339 336 330 326 325 327 326 324 324 324 323 323 322
327 327 327 327 327 328 326 327 327 326 324 326 326 322 316 315 317 321 322 324 325 326 327 329 331 335 333 339 340 341 339 334 330 326 325 325 325 324 323 323 322 322 322
327 327 326 326 326 327 326 326 327 327 326 321 324 326 325 323 314 312 316 318 320 321 322 324 329 330 333 336 338 338 336 336 331 328 327 326 327 326 324 323 322 322 322
327 328 327 327 327 327 326 326 326 326 327 324 323 322 322 321 321 317 311 312 314 316 320 323 325 325 325 328 334 336 334 333 332 332 331 328 326 324 323 322 321 321 321
326 328 327 327 327 326 327 327 327 326 325 325 324 323 321 319 318 314 314 310 311 310 314 317 321 323 323 325 332 331 326 324 322 322 325 326 325 322 321 320 320 319 319
325 326 326 326 326 326 327 328 325 324 325 324 323 322 322 321 320 318 313 307 308 306 307 311 316 320 316 318 329 329 327 322 318 318 319 320 321 322 320 318 317 317 317
324 325 326 327 326 327 329 328 326 325 324 323 323 323 323 323 323 319 313 306 300 303 307 310 311 314 314 314 316 324 324 320 317 315 315 316 317 317 318 318 316 316 312
325 325 324 323 324 326 327 326 326 325 326 324 325 324 324 320 321 315 313 311 308 304 303 308 309 311 313 316 318 318 317 319 317 314 314 314 314 313 314 314 317 314 309
320 318 318 317 317 320 323 324 323 324 323 323 322 321 320 319 318 315 312 311 312 306 302 305 307 310 314 317 321 318 316 319 316 314 312 311 311 311 313 312 313 312 307
317 316 317 318 318 319 320 319 319 320 318 318 319 319 317 316 313 309 313 310 308 309 307 311 314 315 316 319 317 318 318 317 314 313 312 310 308 308 311 311 308 309 307
316 318 320 318 317 316 318 318 317 317 316 316 316 316 313 312 312 312 315 314 313 312 312 313 312 308 309 308 311 313 310 308 310 312 310 308 307 307 308 309 306 305 304
315 317 317 315 314 314 313 313 313 312 312 313 314 314 312 313 312 313 315 315 313 313 316 313 306 303 304 305 307 307 308 309 309 311 309 307 306 306 306 306 305 302 300
314 314 315 314 313 312 311 310 310 309 309 309 311 312 312 313 314 313 313 314 314 315 313 308 304 302 303 303 305 305 305 304 304 305 304 304 304 305 304 305 304 302 299
313 314 313 312 311 311 309 309 309 308 307 306 307 308 310 312 311 311 312 314 315 311 309 306 303 302 302 302 305 303 303 301 303 303 301 299 297 299 300 302 304 304 300
310 312 312 311 311 309 301 302 305 305 304 305 305 304 306 307 306 304 305 305 307 311 307 305 302 304 302 302 301 302 300 299 298 301 301 298 297 296 298 300 301 301 301
307 309 309 310 309 307 298 298 299 301 301 301 301 301 302 302 304 305 303 302 302 301 304 308 307 305 304 303 302 299 299 299 300 299 299 298 296 296 297 298 299 300 299
305 305 306 307 308 307 297 296 296 298 297 297 298 298 301 300 301 302 302 302 301 301 303 303 308 309 307 304 304 303 301 299 298 298 298 297 296 295 297 298 297 298 297
302 303 304 305 306 307 297 295 297 297 297 297 297 297 296 298 295 294 301 300 299 297 295 295 295 295 293 294 298 298 297 297 297 296 296 297 295 295 295 297 298 296 296
304 303 303 304 302 306 296 295 298 299 299 299 301 301 297 296 293 292 299 299 299 299 295 294 296 296 296 297 296 302 299 297 295 294 298 296 293 294 293 296 297 297 297
Wind_Speed
3 3 3 3 3 3 3 3 5 6 5 6 7 8 7 6 6 6 7 19 15 17 20 22 22 23 21 19 18 17 17 18 17 18 15 15 16 14 15 14 13 13 13
3 3 3 3 3 3 3 4 6 6 6 6 9 8 7 6 6 8 8 12 15 16 19 22 24 23 21 20 18 19 19 18 17 18 14 13 15 14 14 13 13 13 13
4 3 2 3 3 3 4 4 5 5 6 6 10 8 8 7 7 9 9 5 9 19 22 22 22 20 22 20 20 21 19 18 17 17 14 13 14 14 13 13 13 13 14
4 3 3 3 4 5 4 5 6 6 6 8 7 8 7 8 8 9 8 5 3 8 15 20 20 20 21 21 21 21 20 18 17 16 14 15 14 14 13 13 13 13 13
2 4 4 5 7 6 6 7 6 7 7 7 7 7 7 8 9 8 8 7 5 3 1 15 20 20 21 21 21 21 19 18 16 16 14 15 14 13 12 12 12 12 12
4 6 3 5 6 6 8 6 9 6 8 8 9 9 7 8 7 7 7 5 5 3 3 5 10 12 22 21 21 20 19 18 16 15 14 14 13 12 12 11 11 11 9
3 7 4 3 4 7 9 9 10 11 9 11 9 9 8 9 9 7 6 5 6 4 4 2 4 4 10 20 17 18 18 17 16 15 13 11 11 11 11 10 9 7 6
6 3 6 5 5 6 9 11 10 8 9 7 8 9 6 6 6 6 6 6 8 6 5 3 7 7 8 8 11 16 17 16 15 14 13 10 11 11 9 8 6 5 4
7 7 7 6 7 6 6 9 6 13 9 7 7 4 5 4 5 2 7 7 9 6 5 5 8 7 7 9 10 13 14 14 14 13 11 10 9 8 8 6 4 2 1
8 8 8 5 8 6 8 8 3 7 11 9 3 4 5 4 5 4 5 6 7 6 5 5 6 6 8 6 8 9 12 12 13 12 10 8 7 8 8 6 3 1 3
6 6 6 6 7 6 7 9 7 8 6 4 5 7 9 6 4 4 5 4 6 5 4 5 5 5 6 5 5 7 10 11 11 9 8 8 8 8 8 6 5 4 6
4 5 4 5 5 6 8 8 7 8 6 6 6 6 7 4 8 5 6 4 4 2 2 2 4 3 5 5 8 10 10 10 10 10 9 9 8 8 7 7 8 9 9
3 2 2 3 4 5 6 8 7 6 5 5 5 6 5 6 4 4 5 3 3 1 2 3 2 3 3 3 5 8 10 9 10 9 9 9 8 8 9 9 10 11 11
2 1 1 1 6 3 6 7 6 4 4 4 6 6 8 8 6 4 5 7 4 2 1 2 1 2 2 3 4 8 6 8 10 9 9 8 9 9 9 9 10 11 12
3 5 1 3 4 5 4 6 5 4 4 3 4 7 7 5 5 4 3 3 4 4 1 1 1 2 2 2 3 5 5 9 10 10 9 8 7 8 8 8 10 11 12
1 5 4 4 5 6 6 6 3 6 6 3 4 7 5 4 5 4 4 3 2 4 4 1 1 1 2 2 4 5 5 7 11 10 9 8 8 8 8 10 10 11 12
3 6 5 6 6 7 8 7 6 8 7 6 5 8 6 5 4 4 3 3 3 3 7 2 1 1 2 3 3 4 4 6 7 11 10 10 9 9 9 11 11 9 9
4 5 6 8 7 7 4 8 8 7 10 10 8 8 7 5 5 4 3 4 3 3 6 6 2 2 3 2 3 6 5 5 6 9 11 10 10 9 9 10 10 9 9
5 6 8 8 7 7 9 8 9 8 8 7 6 9 9 9 6 4 3 4 3 3 3 5 4 1 2 2 5 4 4 4 4 11 10 10 9 8 7 8 9 8 6
6 6 6 7 7 7 9 8 8 8 8 7 6 6 6 5 6 6 4 4 3 5 4 4 3 3 2 2 2 4 4 2 3 4 7 6 6 8 8 8 10 8 5
5 5 7 6 5 6 5 7 6 6 7 7 6 6 6 6 6 4 4 5 6 4 4 4 3 2 3 3 4 3 3 2 2 2 4 3 3 3 4 6 8 9 6
5 5 5 6 5 3 6 8 7 5 5 5 5 5 4 6 9 10 9 12 4 6 5 5 3 4 4 3 4 4 4 3 4 4 5 4 3 4 5 4 8 8 8
4 4 5 5 5 4 7 9 9 5 5 5 4 4 4 4 6 5 9 10 9 8 5 5 6 5 5 7 7 5 5 4 4 3 4 5 4 5 5 5 6 5 4
4 4 4 4 3 2 6 7 8 6 5 5 5 5 5 4 4 5 5 5 3 3 2 2 4 5 5 7 7 6 6 4 1 3 4 5 4 5 4 5 7 6 5
4 4 4 5 5 3 6 7 7 5 5 5 4 5 5 5 6 8 5 5 4 2 4 5 2 3 6 7 7 7 6 6 4 5 6 4 5 4 3 4 5 5 6
5 4 4 4 5 4 8 9 6 3 4 4 4 5 8 6 10 9 5 4 3 2 4 2 2 4 4 6 10 4 7 6 3 3 6 6 4 4 3 3 4 4 4
Wind_Direction
208 195 205 199 204 191 199 155 148 157 151 150 146 150 145 134 133 149 147 160 158 160 157 149 145 146 148 140 137 130 131 117 110 105 107 111 108 104 97 91 85 82 76
210 196 206 205 197 194 156 156 146 151 153 157 165 150 135 131 134 138 132 140 169 169 163 156 153 151 145 137 132 126 117 112 114 112 111 110 105 98 93 90 84 77 74
229 215 225 186 186 168 160 147 130 131 134 167 163 139 129 134 135 117 114 126 193 181 166 154 155 150 143 138 135 121 117 121 122 113 112 109 103 99 91 86 83 78 71
221 213 180 192 155 164 151 141 132 130 146 166 152 132 116 114 103 98 110 131 154 185 160 155 151 149 143 140 131 123 124 122 120 121 116 109 99 93 94 89 84 78 76
171 171 160 154 157 143 135 132 138 137 152 130 119 118 111 114 104 99 93 78 81 39 176 154 152 149 145 138 133 128 127 126 122 117 116 101 102 99 98 96 89 85 77
120 137 104 118 136 133 137 136 138 139 130 128 114 105 107 103 95 96 79 66 71 117 285 160 151 154 144 135 128 131 131 129 122 119 111 103 109 112 107 103 95 87 83
87 132 110 108 118 143 143 140 133 138 137 131 114 103 98 98 95 102 93 89 91 105 53 168 106 110 131 124 130 135 132 130 126 111 114 115 123 119 114 106 96 92 82
104 77 108 119 116 132 128 132 140 144 129 137 129 117 123 102 77 78 90 95 88 88 76 68 84 102 129 124 131 132 134 130 118 119 123 128 121 123 126 115 114 96 84
73 71 84 83 80 121 114 132 140 139 130 121 120 149 123 124 115 31 77 76 77 82 75 77 81 89 95 106 127 133 128 121 127 126 131 130 127 135 128 125 110 111 107
59 69 64 69 87 99 104 134 102 117 135 129 96 61 95 102 116 140 48 57 62 63 59 54 71 72 81 103 114 131 132 134 132 135 137 139 136 135 121 122 118 53 25
60 64 76 69 79 80 105 120 87 100 124 100 103 117 108 84 82 121 105 83 56 29 40 60 69 87 90 90 95 113 125 132 120 120 121 134 137 128 113 102 91 73 54
60 57 73 73 90 99 115 108 88 84 95 97 111 114 134 138 142 118 116 84 108 75 70 77 86 99 86 81 110 128 119 107 105 115 135 125 121 119 117 106 91 74 69
29 78 94 104 57 97 97 124 95 91 95 118 121 116 106 109 108 100 98 92 111 97 78 60 78 91 89 105 132 117 120 120 128 132 132 124 125 119 114 99 87 82 81
92 130 141 124 110 109 123 131 119 120 133 145 123 123 126 130 138 129 139 142 99 91 91 91 62 101 106 129 114 129 142 143 137 141 133 134 127 118 103 100 100 106 93
83 105 273 242 123 143 153 123 142 128 139 117 131 129 135 113 134 111 108 113 120 130 95 110 107 36 66 105 134 138 149 162 146 143 136 126 121 120 122 114 116 107 84
59 114 111 108 97 112 118 118 119 135 122 142 128 117 103 102 114 108 116 87 91 125 118 66 73 131 191 134 169 147 150 153 142 135 129 126 121 112 105 113 116 108 91
71 93 103 85 90 111 116 127 117 128 117 111 101 114 108 124 114 105 103 89 88 86 118 116 106 70 83 137 104 95 118 125 136 132 126 116 102 95 97 117 102 102 116
57 75 87 86 79 73 80 104 106 107 118 118 118 113 110 96 114 135 133 123 139 134 130 130 99 84 79 65 95 93 98 113 129 127 119 109 104 101 101 132 108 107 110
74 60 81 83 85 84 81 67 81 79 79 86 113 130 138 138 143 146 147 130 116 114 97 136 128 136 105 66 78 73 91 85 99 111 98 98 97 104 103 112 119 102 101
97 77 63 80 84 84 85 82 87 86 82 78 83 93 108 114 133 133 126 145 133 125 110 118 103 103 99 80 96 146 139 95 124 119 91 112 112 116 117 120 139 128 124
102 109 103 74 75 93 109 109 97 96 95 84 64 65 65 85 106 129 134 150 146 133 134 132 115 122 156 169 183 153 157 151 171 173 157 159 136 136 133 144 154 177 196
97 109 109 119 113 93 116 98 108 107 99 103 105 83 73 75 65 53 67 77 83 147 149 148 158 184 185 180 161 173 141 169 213 189 186 181 185 179 176 179 182 203 221
131 130 127 132 137 143 138 126 127 127 129 118 114 102 80 62 74 86 80 85 77 82 147 154 166 193 179 194 154 175 192 189 201 166 182 191 198 194 197 204 217 229 265
150 143 145 147 146 160 151 145 125 122 116 125 138 142 134 133 130 133 122 108 104 78 89 167 192 195 212 176 183 178 173 161 116 191 207 210 175 212 202 224 226 232 263
155 178 184 172 177 192 171 160 139 131 130 143 150 160 162 163 173 157 135 140 148 150 58 45 347 249 195 173 156 140 166 170 200 210 194 206 186 214 213 223 214 232 264
177 165 173 194 196 198 183 191 166 148 154 177 191 191 194 175 170 175 153 163 177 205 180 170 123 86 125 169 184 206 165 190 177 211 198 199 174 185 218 206 207 219 231